Location: Fluertsh�userhof
(48.7537°N, 10.3850°E)
Time: 04:39:55
(UTC+00:00)

CREW DRAGON DEMO-1 DEB - Pass Details

Date: 18 September 2020
Orbit: 361 x 363 km, 51.6° (Epoch: 29 October)

Event Time Altitude Azimuth Distance (km) Brightness Sun altitude
Rises 18:30:15 0° 277° (W) 2,195 8.7 -11.6°
Reaches altitude 10° 18:32:20 10° 283° (WNW) 1,350 7.2 -11.9°
Maximum altitude 18:35:15 45° 359° (N) 506 3.6 -12.4°
Enters shadow 18:37:12 18° 67° (ENE) 981 4.5 -12.7°
